Regional Weather Roundup
Issued by NWS Upton, NY

Current Version | Previous Version | Text Only | Print | Product List | Glossary On
Versions: 1 2 3 4 5 6 7 8 9 10 11 12 13 14 15 16 17 18 19 20 21 22 23 24 25 26 27 28 29 30 31 32 33 34 35 36 37 38 39 40 41 42 43 44 45 46 47 48 49
000
ASUS41 KOKX 050104
RWROKX

REGIONAL WEATHER ROUNDUP
NATIONAL WEATHER SERVICE NEW YORK NY
900 PM EDT FRI SEP 04 2015

NOTE: "FAIR" INDICATES FEW OR NO CLOUDS BELOW 12,000 FEET WITH NO
SIGNIFICANT WEATHER AND/OR OBSTRUCTIONS TO VISIBILITY.

NYZ071-072-176-178-NJZ106-104-050200-
NEW YORK CITY METRO AREA


CITY           SKY/WX    TMP DP  RH WIND       PRES   REMARKS
CENTRAL PARK   CLEAR     76  62  62 VRB5      30.19R
LAGUARDIA APRT PTCLDY    76  62  62 SE8       30.16R
KENNEDY INTL   PTCLDY    74  62  66 E14       30.18R
NEWARK/LIBERTY PTCLDY    75  62  64 E12G21    30.16R
BRNX BOT. GARD   N/A     73  63  68 S3        30.18R
TETERBORO      CLEAR     78  63  59 SE6       30.15R
$$

NYZ177-179-078>081-050200-
LONG ISLAND NEW YORK

CITY           SKY/WX    TMP DP  RH WIND       PRES   REMARKS
FARMINGDALE    CLEAR     73  64  73 E7        30.17R
ISLIP          CLEAR     71  63  75 E9        30.17R
SHIRLEY        CLEAR     70  63  78 VRB5      30.19R
WESTHAMPTON    CLEAR     70  63  78 E8        30.20R
MONTAUK POINT    N/A     70  61  73 NE12      30.22R
$$

NYZ052-065-067-050200-
HUDSON VALLEY

CITY           SKY/WX    TMP DP  RH WIND       PRES   REMARKS
WHITE PLAINS   CLEAR     72  63  73 NE3       30.18R
NEWBURGH       NOT AVBL
MONTGOMERY     CLEAR     72  68  87 CALM      30.18R
POUGHKEEPSIE   CLEAR     74  63  68 E6        30.16R
ALBANY         PTCLDY    74  60  61 SE5       30.19R
$$

NJZ001-105-106-008-010-013-015-019>022-104-050200-
NEW JERSEY

CITY           SKY/WX    TMP DP  RH WIND       PRES   REMARKS
NEWARK/LIBERTY PTCLDY    75  62  64 E12G21    30.16R
TETERBORO      CLEAR     78  63  59 SE6       30.15R
CALDWELL       CLEAR     76  65  68 S5        30.17R
MORRISTOWN     CLEAR     75  68  78 CALM      30.17R
SOMERVILLE     MOCLDY    74  65  73 VRB3      30.15R
SUSSEX         CLEAR     70  66  87 CALM      30.18R
ANDOVER          N/A     69  65  86 CALM      30.18R
TRENTON        CLEAR     73  64  73 SE7       30.15R
MILLVILLE      MOCLDY    75  67  76 E12G20    30.13R
ATLANTIC CITY  CLOUDY    75  68  78 NE13      30.13R
WRIGHTSTOWN    CLOUDY    73  68  83 E9        30.12R
TOMS RIVER     CLOUDY    73  66  78 E6        30.16R
BELMAR         CLOUDY    73  63  68 E9        30.17R
$$

PAZ047>061-062-071-050200-
EASTERN PENNSYLVANIA

CITY           SKY/WX    TMP DP  RH WIND       PRES   REMARKS
PHILADELPHIA   PTCLDY    76  66  71 E13       30.15R
ALLENTOWN      PTCLDY    77  67  71 E7        30.15R
SCRANTON       PTCLDY    75  67  76 E3        30.17R
$$

CTZ002-004>006-009-010-012-RIZ004-006-007-MAZ004-011-015-050200-
SOUTHERN NEW ENGLAND
 IN CT

CITY           SKY/WX    TMP DP  RH WIND       PRES   REMARKS
BRADLEY INTL   PTCLDY    72  58  61 E9        30.21R
HARTFORD       CLEAR     72  59  63 VRB7      30.20R
DANBURY        CLEAR     71  61  70 CALM      30.21R
WTRBRY/OXFORD  CLEAR     70  59  68 CALM      30.22R
BRIDGEPORT     CLEAR     74  65  73 E15       30.19R
MERIDEN        CLEAR     74  59  59 VRB3      30.20R
NEW HAVEN      CLEAR     73  64  73 E8        30.19R
CHESTER        NOT AVBL
GROTON         MOCLDY    69  61  75 NE8       30.21R
WILLIMANTIC    PTCLDY    69  56  62 NE7       30.23R

 IN RI

CITY           SKY/WX    TMP DP  RH WIND       PRES   REMARKS
PROVIDENCE     PTCLDY    65  58  78 NE9       30.24R
BLOCK ISLAND   PTCLDY    66  61  82 NE10G16   30.21R
WESTERLY       MOCLDY    67  59  75 NE8       30.22R

 IN MA

CITY           SKY/WX    TMP DP  RH WIND       PRES   REMARKS
BOSTON         PTCLDY    63  59  87 NE5       30.25R
WORCESTER      CLEAR     62  56  80 E5        30.27R
WESTFIELD      CLEAR     71  57  61 E6        30.22R
PROVINCETOWN     N/A     63  55  77 NE10      30.24R
NANTUCKET      CLEAR     64  59  83 NE13      30.19S
$$

ANZ330-335-338-340-345-350-353-355-050200-
COASTAL MARINE OBSERVATIONS


STATION/POSITION TIME  SKY/WX   TEMP    WIND        PRES    VSBY  WAVE
                                AIR SEA DIR/SP/G                  HT/PER
                 (UTC)          (F)     (DEG/KT/KT) (MB)    (MI)  (FT/S)
NY HARB ENTRANCE 2350            74 76   90/ 19/ 21 1019.7          5/ 6
4S FIRE IS       NOT AVBL
20S FIRE ISLAND  2350            73 75   80/ 21/ 25 1019.5          6/ 7
GREAT SOUTH BAY  0030            73 80   90/ 19/ 21   N/A
23SW MTP         0050            70 73   70/ 21/ 23 1021.3          6/ 6
HUDSON CANYON    NOT AVBL
KINGS POINT      0000            76 74  180/  3/  6 1019.9
EXECUTION ROCKS  0000            77     120/  8/ 10   N/A
CENTRAL LI SOUND NOT AVBL
EASTERN LI SOUND 0000            71 71   70/ 16/ 19   N/A
ROBBINS REEF     0000            75     120/ 16/ 18 1019.4
$$


>>>>>>>>>>>>>>>>>>>>>>>>>>>> KEY <<<<<<<<<<<<<<<<<<<<<<<<<<<
>                                                          <
>     SKY/WX - SKY CONDITION/PRESENT WEATHER               <
>     TMP    - TEMPERATURE IN FAHRENHEIT                   <
>     DP     - DEWPOINT IN FAHRENHEIT                      <
>     RH     - RELATIVE HUMIDITY IN PERCENT                <
>     WIND   - DIRECTION AND SPEED IN MPH                  <
>     PRES   - MEAN SEA LEVEL PRESSURE IN INCHES OF HG     <
>     WCI    - WIND CHILL INDEX                            <
>     VSB    - VISIBILITY IN MILES                         <
>     HX     - HEAT INDEX                                  <
>     TC     - TEMPERATURE IN CELSIUS                      <
>     VRB    - VARIABLE WIND DIRECTION                     <
>                                                          <
>>>>>>>>>>>>>>>>>>>>>>>>>>>> KEY <<<<<<<<<<<<<<<<<<<<<<<<<<<




USA.gov is the U.S. government's official web portal to all federal, state and local government web resources and services.